DIWATA-2B

Last updated on Mon Sep 15 2025 00:03:09 GMT+0000 (Coordinated Universal Time)

1 43678U 18084H 25257.27669154 .00001083 00000+0 95261-4 0 9998 2 43678 98.1090 77.1536 0008383 334.3424 25.7381 14.98753828374860
UTC large
Height (km)
Speed (km/s)
/
Latitude / Longitude
Inclination (degrees)
Orbital Period (minutes)
Azimuth
Elevation
Range (km)
Doppler Factor

Next 0 passes for location: London (51.5072 / 0.1276)

Sorry there are no passes over London.